Temp
-6 -6 -6 -5 -5 -6 -6 -6 -6 -6 -6 -6 -6 -6 -6 -6 -6 -6 -6 -7 -7 -7 -7 -8 -8 -8 -8 -8 -9 -9 -9 -9 -9
-6 -6 -6 -6 -6 -6 -6 -6 -6 -6 -6 -6 -6 -6 -6 -6 -6 -7 -7 -7 -8 -8 -8 -8 -8 -8 -8 -8 -9 -9 -9 -10 -10
-6 -6 -6 -6 -6 -6 -6 -6 -6 -6 -6 -6 -6 -6 -6 -6 -7 -7 -7 -8 -8 -8 -8 -8 -9 -9 -9 -9 -9 -9 -9 -10 -10
-7 -6 -6 -6 -6 -6 -6 -6 -6 -6 -6 -6 -6 -7 -7 -7 -7 -7 -8 -8 -8 -8 -8 -9 -9 -9 -9 -9 -9 -10 -10 -10 -10
-7 -7 -7 -7 -7 -7 -7 -7 -7 -7 -7 -7 -7 -7 -7 -7 -8 -8 -8 -8 -8 -9 -9 -9 -9 -9 -10 -10 -10 -10 -10 -10 -11
-7 -7 -7 -7 -7 -7 -7 -7 -7 -7 -7 -7 -7 -8 -8 -8 -8 -9 -9 -9 -9 -9 -9 -9 -10 -10 -10 -10 -10 -10 -11 -11 -11
-8 -7 -7 -7 -7 -7 -7 -7 -7 -7 -8 -8 -8 -8 -8 -8 -9 -9 -9 -9 -9 -9 -10 -10 -10 -10 -10 -10 -11 -11 -11 -12 -12
-8 -8 -8 -7 -8 -8 -8 -8 -8 -8 -8 -8 -8 -8 -9 -9 -9 -9 -9 -10 -10 -10 -10 -10 -10 -11 -11 -11 -11 -11 -12 -12 -12
-8 -8 -8 -8 -8 -8 -8 -8 -8 -8 -8 -8 -8 -9 -9 -9 -9 -9 -10 -10 -10 -10 -11 -11 -11 -11 -11 -12 -12 -12 -12 -12 -12
-8 -8 -8 -8 -8 -8 -8 -8 -8 -8 -8 -8 -9 -9 -9 -9 -10 -10 -10 -10 -10 -10 -11 -11 -11 -11 -11 -12 -12 -12 -12 -12 -13
-8 -8 -8 -8 -8 -8 -9 -8 -9 -9 -9 -9 -9 -9 -9 -10 -10 -10 -10 -10 -10 -10 -11 -11 -11 -11 -12 -12 -12 -13 -13 -13 -13
-9 -9 -9 -9 -9 -9 -9 -9 -9 -9 -9 -9 -9 -9 -10 -10 -10 -11 -11 -11 -11 -11 -11 -11 -11 -12 -12 -12 -13 -13 -13 -13 -13
-9 -9 -9 -9 -9 -9 -9 -9 -9 -9 -9 -9 -9 -10 -10 -10 -11 -11 -11 -11 -11 -11 -11 -12 -12 -12 -12 -12 -13 -13 -14 -14 -14
-9 -9 -9 -9 -9 -9 -9 -9 -10 -10 -10 -9 -10 -10 -10 -11 -11 -11 -11 -11 -11 -12 -12 -12 -12 -12 -12 -13 -13 -13 -14 -14 -14
-10 -10 -9 -9 -9 -9 -10 -10 -10 -10 -10 -10 -10 -10 -11 -11 -11 -11 -11 -12 -12 -12 -12 -12 -12 -12 -13 -13 -13 -13 -13 -14 -14
-10 -10 -10 -10 -9 -10 -10 -10 -10 -10 -10 -10 -11 -11 -11 -11 -11 -11 -11 -12 -12 -12 -12 -12 -13 -13 -13 -13 -13 -14 -14 -14 -14
-10 -10 -10 -10 -10 -10 -10 -10 -10 -10 -10 -10 -10 -11 -11 -11 -12 -12 -12 -12 -12 -13 -13 -13 -13 -13 -13 -13 -14 -14 -14 -14 -14
-10 -11 -11 -11 -11 -11 -11 -11 -11 -11 -11 -11 -11 -11 -11 -11 -11 -12 -12 -13 -13 -13 -13 -13 -13 -13 -13 -14 -14 -14 -14 -15 -15
-11 -11 -11 -11 -11 -11 -11 -11 -11 -11 -11 -11 -11 -11 -11 -11 -11 -12 -13 -13 -13 -13 -14 -14 -14 -14 -14 -14 -14 -15 -15 -15 -15
-11 -11 -11 -11 -11 -11 -11 -11 -11 -11 -11 -11 -11 -11 -11 -11 -12 -12 -12 -13 -13 -14 -14 -14 -14 -14 -14 -14 -15 -15 -15 -15 -15
Height
5902 5901 5901 5900 5899 5898 5897 5896 5895 5893 5891 5890 5889 5888 5887 5885 5883 5881 5879 5877 5874 5872 5869 5868 5866 5864 5862 5859 5857 5856 5853 5851 5849
5901 5900 5899 5898 5897 5896 5895 5894 5893 5892 5890 5888 5887 5886 5884 5882 5880 5879 5877 5874 5872 5869 5867 5865 5863 5861 5859 5856 5854 5852 5850 5848 5846
5899 5898 5897 5896 5895 5895 5894 5892 5892 5890 5888 5886 5885 5883 5882 5880 5878 5876 5874 5872 5869 5867 5864 5862 5860 5858 5856 5853 5851 5849 5846 5845 5843
5897 5896 5895 5894 5893 5893 5891 5890 5889 5888 5886 5884 5882 5881 5879 5878 5875 5873 5871 5868 5866 5864 5861 5859 5857 5855 5853 5850 5848 5845 5843 5841 5839
5894 5893 5893 5892 5891 5890 5889 5887 5887 5885 5883 5881 5879 5878 5876 5874 5872 5869 5867 5864 5862 5860 5858 5856 5854 5852 5849 5847 5845 5842 5840 5838 5836
5891 5890 5890 5890 5889 5888 5886 5885 5884 5882 5880 5878 5877 5876 5873 5871 5869 5866 5863 5860 5858 5856 5854 5852 5850 5847 5845 5843 5840 5838 5836 5834 5832
5889 5888 5888 5887 5886 5885 5884 5883 5881 5880 5878 5876 5874 5872 5870 5868 5865 5863 5861 5858 5855 5852 5850 5848 5845 5843 5841 5838 5836 5834 5832 5830 5828
5886 5885 5885 5884 5884 5883 5881 5880 5879 5877 5875 5873 5871 5869 5866 5864 5862 5860 5857 5855 5852 5849 5846 5844 5841 5839 5836 5833 5831 5828 5827 5825 5823
5883 5882 5882 5881 5880 5879 5878 5877 5875 5874 5872 5870 5868 5865 5862 5860 5858 5856 5853 5850 5847 5844 5841 5838 5836 5833 5831 5828 5826 5824 5821 5820 5818
5879 5878 5878 5877 5877 5875 5874 5873 5871 5870 5868 5865 5863 5861 5859 5856 5854 5851 5847 5843 5841 5838 5836 5832 5830 5827 5825 5823 5821 5818 5816 5814 5812
5875 5874 5874 5873 5872 5871 5869 5868 5867 5865 5863 5861 5859 5857 5854 5851 5848 5845 5841 5838 5835 5832 5830 5827 5824 5821 5818 5816 5814 5812 5809 5807 5805
5870 5870 5869 5869 5867 5866 5865 5863 5862 5860 5858 5856 5854 5851 5848 5845 5842 5839 5835 5833 5830 5826 5823 5821 5818 5815 5812 5809 5807 5804 5802 5800 5798
5865 5864 5864 5863 5863 5861 5860 5858 5857 5854 5852 5850 5848 5845 5842 5839 5836 5832 5829 5826 5823 5820 5817 5814 5811 5808 5805 5802 5799 5797 5794 5792 5790
5859 5858 5858 5858 5857 5856 5854 5852 5851 5848 5846 5843 5841 5838 5835 5832 5829 5825 5822 5818 5815 5811 5809 5806 5803 5800 5797 5794 5791 5789 5787 5783 5781
5853 5853 5851 5851 5851 5849 5848 5846 5845 5842 5839 5837 5834 5831 5828 5824 5821 5817 5814 5811 5807 5803 5800 5798 5795 5791 5788 5786 5783 5781 5779 5777 5773
5846 5846 5845 5844 5844 5842 5841 5840 5838 5835 5833 5830 5828 5824 5820 5817 5813 5809 5806 5802 5799 5796 5792 5789 5786 5783 5780 5777 5775 5773 5771 5769 5766
5838 5838 5838 5837 5836 5835 5833 5831 5829 5827 5824 5822 5819 5817 5814 5810 5805 5801 5797 5793 5790 5788 5784 5780 5776 5773 5771 5769 5767 5765 5762 5759 5757
5830 5830 5829 5828 5828 5827 5825 5823 5821 5818 5816 5812 5810 5807 5805 5802 5799 5794 5789 5786 5782 5778 5774 5770 5768 5765 5763 5761 5758 5755 5753 5751 5747
5821 5821 5821 5820 5819 5818 5817 5814 5812 5810 5808 5805 5802 5799 5796 5793 5791 5787 5781 5777 5773 5769 5765 5762 5760 5757 5754 5752 5749 5746 5744 5741 5738
5812 5812 5812 5811 5810 5809 5808 5806 5804 5801 5799 5796 5793 5790 5788 5784 5780 5778 5773 5769 5765 5761 5757 5753 5750 5748 5745 5742 5740 5737 5734 5731 5728
Wind_Speed
6 8 9 9 9 11 11 11 12 12 12 12 14 15 16 17 18 19 21 22 22 23 23 24 24 25 25 25 25 24 22 22 22
7 7 9 10 11 11 11 12 12 13 13 14 14 15 16 18 19 21 22 22 23 23 23 24 24 25 25 25 25 24 24 23 23
8 9 10 10 12 12 12 12 13 14 14 15 16 16 17 19 20 21 22 22 23 24 24 25 25 25 26 26 26 26 25 25 24
9 10 11 11 12 13 13 14 15 15 16 16 17 18 18 19 20 21 22 23 24 25 25 25 26 26 26 26 26 27 27 26 25
13 12 12 12 13 13 14 15 16 17 17 18 19 19 19 20 22 23 24 26 27 28 28 27 27 27 27 27 27 27 27 27 26
14 14 14 14 14 15 16 17 17 18 19 20 19 19 20 21 22 23 25 26 28 29 29 30 30 29 29 29 28 28 27 27 27
13 14 15 15 16 17 17 17 18 19 19 20 21 21 21 23 24 25 26 26 28 30 30 30 30 31 31 31 30 30 30 28 27
15 15 16 16 16 17 18 18 19 20 21 22 22 23 24 26 27 28 28 28 29 30 32 32 33 33 33 32 32 32 31 30 29
18 18 18 18 18 19 19 20 20 21 22 24 24 25 27 29 30 30 30 30 30 31 33 34 34 33 32 33 33 31 30 30 29
20 20 20 21 20 21 22 22 23 23 24 26 27 29 30 31 32 32 33 33 34 35 35 35 35 33 32 33 33 33 34 33 32
22 23 23 23 23 23 24 24 25 26 26 28 30 31 32 33 34 34 35 36 37 38 38 36 35 35 36 37 36 36 35 35 34
25 25 26 25 25 26 26 26 27 28 29 31 32 33 34 36 36 35 37 38 39 40 39 37 37 36 36 36 36 36 35 35 34
27 28 29 28 28 28 29 29 28 30 31 33 35 36 37 38 38 38 40 42 42 41 39 37 38 38 37 36 36 36 36 36 36
30 31 32 31 30 31 31 31 30 32 33 35 38 39 40 40 39 40 42 43 42 41 39 39 39 38 38 37 37 36 36 35 33
33 33 33 34 33 33 33 33 34 35 36 40 42 43 42 41 42 43 44 43 42 42 41 41 40 40 39 37 35 34 30 32 36
36 35 35 36 36 36 35 35 36 38 40 46 44 44 43 41 43 45 46 44 42 41 41 41 40 39 37 34 33 32 33 36 37
39 37 37 38 38 38 38 40 42 44 45 46 47 45 43 41 43 47 47 45 44 42 41 40 39 37 34 34 33 35 37 37 38
42 41 40 40 40 40 41 44 46 47 47 48 49 47 42 42 45 46 45 43 42 43 42 40 37 35 35 34 36 38 36 37 36
44 43 43 43 43 43 46 47 47 47 48 48 47 44 43 47 48 45 43 42 42 40 39 37 35 35 35 37 38 38 36 37 37
47 46 45 45 45 47 48 48 48 48 47 45 41 43 47 47 48 43 44 44 41 38 37 35 36 37 38 39 38 37 36 37 38
Wind_Direction
322 329 326 329 329 327 327 328 326 324 326 329 328 329 330 332 330 328 328 330 330 333 334 332 330 327 327 326 322 319 315 310 306
320 325 326 330 330 328 326 324 321 320 324 325 326 326 328 330 329 330 330 331 333 333 331 331 329 328 327 325 323 320 315 310 307
320 322 327 328 327 326 325 325 321 321 324 323 323 324 328 328 330 330 329 330 331 329 329 329 329 328 328 326 324 322 316 311 308
311 317 320 322 322 320 320 321 318 318 318 318 319 322 326 326 327 327 326 327 326 325 325 325 325 324 323 322 322 320 317 314 309
309 313 315 316 316 316 315 315 312 313 314 315 318 321 323 325 324 325 324 324 324 323 324 324 323 322 320 318 318 317 316 314 313
301 307 309 311 313 312 311 310 309 310 311 313 315 317 321 321 320 320 320 321 322 322 322 320 319 318 317 316 315 313 311 310 309
288 293 299 304 306 307 305 306 306 308 309 311 312 315 315 316 318 317 316 319 319 318 317 316 316 315 314 313 311 310 308 309 307
282 287 292 294 296 298 299 300 302 305 307 308 309 311 312 314 315 314 316 317 316 316 314 314 314 313 312 311 309 309 310 310 307
281 285 288 291 295 295 295 296 299 299 300 303 305 308 310 311 312 311 312 313 315 315 314 313 311 310 309 308 308 309 311 309 306
280 285 289 292 293 294 295 297 298 298 301 303 305 306 307 307 309 310 312 314 315 314 312 310 309 307 306 307 306 306 307 305 304
279 283 286 290 292 292 294 295 296 297 300 301 301 303 305 305 307 310 311 313 312 312 311 310 307 304 303 304 303 303 303 302 302
278 282 285 287 287 289 291 292 294 297 300 300 302 303 305 305 306 308 308 311 311 309 308 308 308 305 304 303 303 303 303 302 300
278 280 282 283 286 289 290 290 293 298 299 301 302 302 304 304 304 305 307 310 308 307 307 307 306 306 305 303 303 302 301 299 297
276 278 281 284 286 286 287 289 293 296 297 302 302 303 303 302 302 304 307 308 307 306 305 305 305 304 303 303 302 298 296 295 295
274 276 278 281 282 284 286 288 291 295 296 301 301 302 300 299 301 303 307 306 304 304 303 303 303 303 303 302 299 296 295 292 293
273 274 276 279 282 283 285 286 291 294 293 298 298 298 298 298 300 304 304 303 302 300 300 301 302 302 300 298 295 293 293 292 291
273 275 276 279 281 283 285 288 290 293 292 294 295 297 295 296 300 302 302 300 298 298 299 300 298 297 296 293 292 293 294 295 295
273 275 277 279 281 282 284 286 289 291 291 293 295 295 294 297 299 299 296 295 296 297 298 296 294 294 294 292 294 295 295 296 296
273 275 276 278 279 280 284 287 287 288 290 292 293 292 294 297 299 296 292 293 294 294 292 290 292 293 291 292 295 295 296 296 296
272 273 275 276 276 279 282 284 285 288 289 289 288 292 294 296 296 293 291 292 292 289 287 289 293 292 292 295 296 295 295 298 298